Location: Appingedam
(53.3222°N, 6.8488°E)
Time: 20:14:37
(UTC+00:00)

Okean-O - Pass Details

Date: 15 May 2026
Orbit: 627 x 629 km, 97.9° (Epoch: 6 June)

Event Time Altitude Azimuth Distance (km) Brightness Sun altitude
Exits shadow 20:14:53 - 166° (SSE) 2,549 5.2 -6.5°
Reaches altitude 10° 20:16:12 10° 167° (SSE) 2,005 4.7 -6.6°
Maximum altitude 20:20:34 82° 255° (WSW) 643 2.7 -7.1°
Drops below altitude 10° 20:24:59 10° 344° (NNW) 2,019 6.3 -7.5°
Sets 20:27:12 0° 345° (NNW) 2,931 7.3 -7.7°
